Location: �perlecques
(50.8057°N, 2.1521°E)
Time: 18:20:09
(UTC+00:00)

KKS-1 - Pass Details

Date: 10 April 2023
Orbit: 633 x 644 km, 98.2° (Epoch: 03 June)

Event Time Altitude Azimuth Distance (km) Brightness Sun altitude
Rises 22:33:39 0° 15° (NNE) 2,945 ? -28.6°
Reaches altitude 10° 22:35:52 10° 16° (NNE) 2,032 ? -28.8°
Enters shadow 22:38:39 39° 22° (NNE) 968 ? -28.9°
